Location: Unspecified
(48.2082°N, 0.0000°E)
Time: 11:23:49
(UTC+00:00)

S-56A Canister/Altair - Pass Details

Date: 26 June 2019
Orbit: 633 x 2499 km, 38.9° (Epoch: 17 August)

Event Time Altitude Azimuth Distance (km) Brightness Sun altitude
Rises 17:30:54 0° 263° (W) 4,907 12.9 22.4°
Reaches altitude 10° 17:34:50 10° 256° (WSW) 3,598 12.3 21.7°
Maximum altitude 17:42:36 38° 193° (SSW) 1,598 9.4 20.5°
Drops below altitude 10° 17:48:02 10° 126° (SE) 2,500 9.7 19.6°
Sets 17:50:19 0° 118° (ESE) 3,272 10.2 19.2°
